Change the Weather History Date:

Saturday, January 4, 2014

  Actual Average Record
Temperature  
Mean Temperature 45 °F 36 °F  
Max Temperature 61 °F 46 °F 62 °F (1918)
Min Temperature 29 °F 26 °F -4 °F (1971)
Degree Days  
Heating Degree Days 20 30  
Month to date heating degree days 101 120  
Since 1 July heating degree days 1895 1877  
Cooling Degree Days 0 0  
Month to date cooling degree days 0 0  
Year to date cooling degree days 0 0  
Moisture  
Dew Point 14 °F    
Average Humidity 39    
Maximum Humidity 63    
Minimum Humidity 14    
Precipitation  
Precipitation 0.00 in 0.01 in 0.33 in (2005)
Month to date precipitation 0.00 0.05  
Year to date precipitation 0.00 0.05  
Snow  
Snow 0.00 in - - ()
Month to date snowfall 0.0  
Since 1 July snowfall 4.9  
Snow Depth 0.00 in    
Sea Level Pressure  
Sea Level Pressure 29.86 in    
Wind  
Wind Speed 15 mph (SW)    
Max Wind Speed 31 mph    
Max Gust Speed 40 mph    
Visibility 10 miles    
Events      
T = Trace of Precipitation, MM = Missing Value Source: NWS Daily Summary

Daily Weather History Graph

Daily Weather History Graph

Search for Another Location

Airport or City:

Trip Planner

Search our weather history database for the weather conditions in past years. The results will help you decide how hot, cold, wet, or windy it might be!

Date:

Astronomy

Jan. 04, 2014 Rise Set
Actual Time 7:15 AM MST 5:08 PM MST
Civil Twilight 6:47 AM MST 5:36 PM MST
Nautical Twilight 6:15 AM MST 6:07 PM MST
Astronomical Twilight 5:44 AM MST 6:38 PM MST
Moon 9:31 AM MST (1/4) 9:20 PM MST (1/4)
Length of Visible Light 10h 49m
Length of Day
9h 53m
Waxing Crescent, 16% of the Moon is Illuminated
Jan 4
Waxing Crescent
Jan 7
First Quarter
Jan 15
Full
Jan 23
Last Quarter
Jan 30
New

Hourly Weather History & Observations

Time (MST) Temp. Windchill Dew Point Humidity Pressure Visibility Wind Dir Wind Speed Gust Speed Precip Events Conditions
12:52 AM 32.0 °F 24.8 °F 19.9 °F 61% 29.91 in 10.0 mi ESE 8.1 mph - N/A   Clear
1:52 AM 30.9 °F 22.2 °F 19.9 °F 64% 29.90 in 10.0 mi SE 10.4 mph - N/A   Clear
2:52 AM 30.9 °F 25.2 °F 19.0 °F 61% 29.89 in 10.0 mi SSE 5.8 mph - N/A   Clear
3:52 AM 32.0 °F 26.4 °F 18.0 °F 56% 29.88 in 10.0 mi SE 5.8 mph - N/A   Clear
4:52 AM 30.9 °F 24.3 °F 18.0 °F 59% 29.88 in 10.0 mi SE 6.9 mph - N/A   Clear
5:52 AM 32.0 °F 24.8 °F 17.1 °F 54% 29.89 in 10.0 mi SSE 8.1 mph - N/A   Partly Cloudy
6:52 AM 33.1 °F 27.7 °F 17.1 °F 52% 29.90 in 10.0 mi SSE 5.8 mph - N/A   Partly Cloudy
7:52 AM 30.9 °F 22.2 °F 19.0 °F 61% 29.91 in 10.0 mi ESE 10.4 mph - N/A   Scattered Clouds
8:52 AM 39.9 °F 32.9 °F 18.0 °F 41% 29.88 in 10.0 mi SSE 11.5 mph - N/A   Scattered Clouds
9:52 AM 48.0 °F - 17.1 °F 29% 29.86 in 10.0 mi South 11.5 mph - N/A   Partly Cloudy
10:52 AM 50.0 °F - 17.1 °F 27% 29.83 in 10.0 mi SSW 12.7 mph - N/A   Partly Cloudy
11:52 AM 53.1 °F - 18.0 °F 25% 29.76 in 10.0 mi SSW 11.5 mph - N/A   Partly Cloudy
12:52 PM 57.9 °F - 18.0 °F 21% 29.70 in 10.0 mi WSW 21.9 mph 27.6 mph N/A   Partly Cloudy
1:52 PM 60.1 °F - 12.9 °F 16% 29.65 in 10.0 mi West 26.5 mph 35.7 mph N/A   Widespread Dust
2:52 PM 60.1 °F - 10.9 °F 14% 29.63 in 10.0 mi West 23.0 mph 33.4 mph N/A   Partly Cloudy
3:52 PM 57.9 °F - 12.0 °F 16% 29.68 in 10.0 mi NW 29.9 mph 38.0 mph N/A   Partly Cloudy
4:52 PM 54.0 °F - 16.0 °F 22% 29.72 in 10.0 mi NNW 27.6 mph 34.5 mph N/A   Scattered Clouds
5:06 PM 50.0 °F - 17.1 °F 27% 29.80 in 10.0 mi NNW 23.0 mph 32.2 mph N/A   Mostly Cloudy
5:52 PM 45.0 °F 36.2 °F 19.0 °F 36% 29.83 in 10.0 mi NNW 24.2 mph 35.7 mph N/A   Mostly Cloudy
6:52 PM 39.0 °F 27.4 °F 14.0 °F 36% 29.91 in 10.0 mi NNW 28.8 mph 40.3 mph N/A   Partly Cloudy
7:52 PM 37.9 °F 27.9 °F 3.9 °F 24% 29.96 in 10.0 mi NNW 19.6 mph 28.8 mph N/A   Partly Cloudy
8:52 PM 36.0 °F 26.3 °F 3.0 °F 25% 29.98 in 10.0 mi NNW 16.1 mph 32.2 mph N/A   Partly Cloudy
9:52 PM 34.0 °F 22.4 °F -0.0 °F 24% 29.98 in 10.0 mi NW 20.7 mph 28.8 mph N/A   Partly Cloudy
10:52 PM 32.0 °F 21.2 °F -2.0 °F 23% 30.01 in 10.0 mi NW 16.1 mph 27.6 mph N/A   Clear
11:52 PM 30.0 °F - -2.0 °F 25% 30.03 in 10.0 mi Calm Calm - N/A   Clear